[[{"header":{"parameterUnit":"m.s-1","parameterCategory":1,"la1":30.2991,"la2":30.254,"lo1":-89.0895,"lo2":-89.0444,"dy":0.0017,"dx":0.0017,"nx":28,"ny":28,"refTime":"2025-03-18T09:00:00:Z","depth":0,"parameterNumber":2,"parameterNumberName":"U-component_of_WINDS"},"data":[0,0,0,0,0,0,0,0,0,0,0,0,0,0,0,0,0,0,0,0,0,0,0,0,0,0,0,0,0,0,0,0,0,0,0,0,0,0,0,0,0,0,0,0,0,0,0,0,0,0,0,0,0,0,0,0,0,0,0.5722,0.5722,0,0.5777,0.5778,0.5779,0.5699,0.5696,0.5693,0.569,0.5758,0.5762,0.5767,0,0,0,0,0,0,0,0,0,0,0,0,0,0.5555,0.5558,0.5721,0.5722,0.5723,0.5777,0.5778,0.5779,0.5699,0.5696,0.5692,0.5689,0.5756,0.5762,0.5767,0,0,0,0,0,0,0,0,0,0,0,0,0,0.5621,0.5559,0.5721,0.5689,0.5687,0.5777,0.5778,0.5779,0.57,0.5696,0.5691,0.5687,0.5755,0.5761,0.5768,0.5895,0,0,0.5788,0.5791,0,0,0,0,0,0,0,0,0.5617,0.5627,0.5693,0.5692,0.5689,0.5726,0.5744,0.5818,0.5701,0.5695,0.569,0.5685,0.5752,0.5758,0.5778,0.5898,0.5901,0.5789,0.5793,0.5796,0.5798,0,0,0,0,0,0,0,0.5613,0.5624,0.5744,0.5695,0.5692,0.5675,0.568,0.5758,0.5747,0.5696,0.569,0.5697,0.575,0.5772,0.5779,0.5902,0.5789,0.5794,0.5799,0.5801,0.613,0.6134,0,0,0,0,0,0,0.5611,0.5621,0.5742,0.5746,0.5642,0.5682,0.5687,0.5719,0.5746,0.5746,0.5701,0.5693,0.5763,0.5772,0.5782,0.5933,0.5796,0.5802,0.5806,0.6125,0.6131,0.6136,0,0,0,0,0,0,0.5607,0.5622,0.574,0.5682,0.5695,0.5689,0.5726,0.5723,0.5745,0.575,0.5748,0.5725,0.576,0.5772,0.5867,0.5934,0.5805,0.5811,0.612,0.6127,0.6133,0.6236,0,0,0,0,0,0,0.5603,0.5621,0.5668,0.5683,0.5699,0.5822,0.573,0.5727,0.5755,0.5746,0.5772,0.5773,0.5757,0.5857,0.5873,0.5941,0.5816,0.6114,0.6123,0.6131,0.6227,0.6246,0.6262,0,0,0,0,0,0.5597,0.5696,0.567,0.5685,0.5756,0.5826,0.5835,0.5812,0.5761,0.5809,0.5812,0.5772,0.5924,0.5868,0.5885,0.5956,0.6109,0.612,0.6131,0.6219,0.6242,0.6262,0,0,0,0,0,0,0.5693,0.5698,0.5669,0.5775,0.58,0.5812,0.5871,0.5838,0.588,0.587,0.5844,0.585,0.5952,0.5963,0.59,0.6081,0.6008,0.6023,0.607,0.6092,0.6109,0.6105,0.5822,0,0,0,0,0,0.5725,0.5778,0.5781,0.5875,0.5889,0.5878,0.5908,0.5888,0.5914,0.5925,0.5935,0.5965,0.6019,0.6056,0.6106,0.6228,0.6234,0.6285,0.6303,0.6317,0.6331,0.6397,0.6421,0.6171,0.6171,0.6171,0,0,0.5795,0.5804,0.584,0.5895,0.5912,0.597,0.5888,0.5953,0.5998,0.5936,0.6025,0.6034,0.6066,0.6174,0.6223,0.6187,0.6401,0.6331,0.6342,0.6348,0.6411,0.6434,0.6455,0.6178,0.6177,0.6176,0,0,0.5952,0.5963,0.6043,0.6061,0.6086,0.6078,0.6097,0.6114,0.6116,0.6204,0.616,0.6213,0.6307,0.6331,0.6356,0.6522,0.6487,0.6539,0.6632,0.6697,0.6717,0.6735,0.6795,0.6817,0.6552,0.6552,0.6553,0,0.6036,0.6119,0.6089,0.6157,0.6183,0.6127,0.6209,0.6229,0.6271,0.6292,0.625,0.6366,0.6384,0.6498,0.6538,0.6559,0.6583,0.6537,0.6716,0.6733,0.6749,0.6807,0.6829,0.6559,0.6558,0.6557,0.6557,0,0.6222,0.6281,0.6343,0.6381,0.6414,0.6489,0.6473,0.6511,0.6488,0.6486,0.6578,0.6596,0.6649,0.6674,0.6654,0.6787,0.6763,0.6719,0.6647,0.678,0.6833,0.6855,0.6568,0.6565,0.6564,0.6562,0,0,0.6442,0.6461,0.6485,0.6501,0.6525,0.6571,0.6645,0.6693,0.6727,0.6758,0.6821,0.6901,0.686,0.6888,0.687,0.6927,0.7059,0.6876,0.6877,0.6911,0.7208,0.7242,0.7267,0.7035,0.7039,0.7042,0.7205,0,0.6599,0.6722,0.6697,0.6819,0.6874,0.6821,0.6885,0.6908,0.6908,0.6957,0.6958,0.7015,0.6956,0.6973,0.7027,0.7031,0.7118,0.7019,0.7097,0.71,0.7092,0.7295,0.7331,0.7484,0.7226,0.723,0.7232,0,0.6799,0.6834,0.6961,0.6975,0.6997,0.7055,0.7098,0.7144,0.717,0.7166,0.7197,0.7168,0.7245,0.7169,0.7275,0.7208,0.7239,0.7246,0.7251,0.7259,0.7175,0.7311,0.7533,0.7556,0.7265,0.7262,0.726,0,0.6949,0.7028,0.7113,0.7129,0.7148,0.719,0.7201,0.7222,0.7253,0.7291,0.7311,0.736,0.7387,0.7426,0.7413,0.7359,0.7523,0.7446,0.7524,0.7525,0.7563,0.7561,0.7795,0.758,0.7579,0.7579,0.7578,0,0.7128,0.7208,0.718,0.7234,0.7323,0.7294,0.7384,0.7388,0.7407,0.7463,0.7421,0.7475,0.7452,0.7506,0.7496,0.7586,0.7599,0.76,0.7597,0.7605,0.7605,0.7625,0.7615,0.7585,0.7583,0.7582,0.7581,0,0.731,0.7295,0.7385,0.7394,0.7399,0.7464,0.7474,0.7525,0.752,0.7591,0.7606,0.7601,0.7661,0.7651,0.7719,0.7712,0.7826,0.7809,0.7816,0.7813,0.7892,0.7886,0.8149,0.8183,0.7945,0.7947,0.7949,0,0.7426,0.7486,0.7501,0.7533,0.7546,0.7599,0.7629,0.7604,0.7638,0.7671,0.772,0.7775,0.7818,0.7918,0.7923,0.7975,0.796,0.8048,0.7968,0.7974,0.7963,0.7961,0.7967,0.8065,0.8068,0.807,0.8072,0,0.7635,0.7623,0.7667,0.7708,0.7745,0.7777,0.7806,0.7836,0.7813,0.7854,0.7913,0.7946,0.8014,0.8071,0.8119,0.8134,0.8101,0.8097,0.8118,0.8128,0.813,0.8132,0.7862,0.8092,0.809,0.8088,0.8087,0.8086,0.7789,0.7839,0.7857,0.7908,0.7925,0.7953,0.8001,0.8002,0.8049,0.81,0.8083,0.8151,0.8177,0.8238,0.8257,0.8313,0.828,0.8311,0.8319,0.8327,0.8338,0.8119,0.8322,0.8321,0.832,0.832,0.832,0,0.7996,0.8004,0.805,0.809,0.813,0.809,0.812,0.8158,0.8217,0.8242,0.8284,0.8354,0.8409,0.8417,0.8469,0.8512,0.8499,0.8527,0.8525,0.8529,0.8363,0.834,0.8538,0.8538,0.8538,0.8537,0.8537,0.8537,0.8108,0.8192,0.8184,0.8277,0.8286,0.8349,0.837,0.8396,0.8416,0.8493,0.8537,0.854,0.856,0.8614,0.8663,0.8664,0.8687,0.8722,0.8718,0.8563,0.8541,0.852,0.8499,0.8727,0.8727,0.888,0.8882,0.8883]},{"header":{"parameterUnit":"m.s-1","parameterCategory":1,"la1":30.2991,"la2":30.254,"lo1":-89.0895,"lo2":-89.0444,"dy":0.0017,"dx":0.0017,"nx":28,"ny":28,"refTime":"2025-03-18T09:00:00:Z","depth":0,"parameterNumber":3,"parameterNumberName":"V-component_of_WINDS"},"data":[0,0,0,0,0,0,0,0,0,0,0,0,0,0,0,0,0,0,0,0,0,0,0,0,0,0,0,0,0,0,0,0,0,0,0,0,0,0,0,0,0,0,0,0,0,0,0,0,0,0,0,0,0,0,0,0,0,0,1.0941,1.0943,0,1.1142,1.1144,1.1147,1.1176,1.1174,1.1172,1.117,1.1379,1.1386,1.1393,0,0,0,0,0,0,0,0,0,0,0,0,0,1.0585,1.0591,1.0941,1.0943,1.0946,1.1142,1.1144,1.1147,1.1176,1.1174,1.1172,1.117,1.1377,1.1385,1.1394,0,0,0,0,0,0,0,0,0,0,0,0,0,1.0758,1.0593,1.094,1.0984,1.099,1.1141,1.1145,1.1148,1.1177,1.1174,1.1171,1.1169,1.1374,1.1384,1.1395,1.1518,0,0,1.1429,1.1433,0,0,0,0,0,0,0,0,1.0748,1.0771,1.0975,1.0981,1.0988,1.1131,1.1095,1.1272,1.1177,1.1106,1.117,1.1167,1.1299,1.1316,1.136,1.1528,1.1537,1.143,1.1436,1.1441,1.1444,0,0,0,0,0,0,0,1.0736,1.0763,1.1021,1.0978,1.0986,1.0994,1.1016,1.1129,1.1216,1.1112,1.1114,1.1138,1.1302,1.1349,1.1365,1.154,1.1429,1.1439,1.1446,1.145,1.182,1.1823,0,0,0,0,0,0,1.0716,1.0752,1.1014,1.1027,1.0859,1.1003,1.1027,1.1088,1.1214,1.1231,1.114,1.1138,1.1332,1.1352,1.1372,1.1526,1.1441,1.1451,1.1457,1.1817,1.1821,1.1824,0,0,0,0,0,0,1.0708,1.0739,1.1006,1.089,1.0925,1.1012,1.108,1.1093,1.1141,1.1236,1.1251,1.1172,1.133,1.1357,1.1482,1.1533,1.1456,1.1466,1.1813,1.1818,1.1822,1.1832,0,0,0,0,0,0,1.0698,1.0736,1.0783,1.0891,1.0931,1.1111,1.1083,1.1099,1.1159,1.1159,1.127,1.1286,1.133,1.1465,1.1492,1.1547,1.1474,1.1809,1.1815,1.1821,1.1828,1.1837,1.1845,0,0,0,0,0,1.0685,1.0778,1.0785,1.0817,1.0991,1.1114,1.1137,1.1186,1.1163,1.1212,1.1272,1.1282,1.1522,1.1478,1.1509,1.1567,1.1806,1.1813,1.182,1.1824,1.1835,1.1844,0,0,0,0,0,0,1.0675,1.0793,1.0802,1.0933,1.1013,1.1119,1.1182,1.1196,1.1285,1.1282,1.1339,1.1364,1.1486,1.1539,1.1487,1.1693,1.1662,1.1676,1.1654,1.1666,1.1674,1.166,1.1483,0,0,0,0,0,1.0688,1.0777,1.0875,1.0981,1.1021,1.1094,1.115,1.118,1.1266,1.13,1.137,1.1454,1.1549,1.161,1.1702,1.1835,1.186,1.189,1.1898,1.1905,1.1917,1.1992,1.2007,1.1848,1.1848,1.1848,0,0,1.0716,1.0791,1.0844,1.0981,1.1047,1.1139,1.1123,1.122,1.129,1.1315,1.1438,1.1492,1.1589,1.1718,1.1779,1.1766,1.1966,1.1914,1.1919,1.1928,1.2001,1.2016,1.203,1.1853,1.1852,1.1852,0,0,1.0814,1.0879,1.0975,1.1041,1.114,1.1188,1.1211,1.1315,1.1352,1.1475,1.1496,1.1579,1.174,1.1809,1.1865,1.1988,1.2001,1.2017,1.2062,1.2134,1.2147,1.2158,1.2204,1.2219,1.2028,1.2028,1.2028,0,1.0836,1.0975,1.1023,1.112,1.118,1.1206,1.1305,1.1366,1.1491,1.1533,1.1516,1.1719,1.1786,1.1933,1.1963,1.2007,1.2036,1.2005,1.2141,1.2153,1.2164,1.2208,1.2225,1.2029,1.2029,1.2029,1.2029,0,1.0998,1.1094,1.1159,1.1278,1.1346,1.1443,1.1506,1.1569,1.1593,1.1643,1.1769,1.185,1.1959,1.1996,1.2021,1.2146,1.2135,1.2129,1.21,1.218,1.2222,1.2239,1.2031,1.2031,1.203,1.203,0,0,1.1097,1.124,1.1264,1.1319,1.143,1.1505,1.1603,1.171,1.1763,1.1847,1.1933,1.2068,1.2063,1.2126,1.2159,1.2222,1.2316,1.2209,1.2212,1.2227,1.2461,1.2466,1.2485,1.2324,1.2328,1.2331,1.2453,0,1.1209,1.1385,1.1431,1.1581,1.167,1.1696,1.1782,1.186,1.1909,1.1993,1.2047,1.2143,1.2128,1.2167,1.2231,1.2291,1.2364,1.2283,1.2406,1.2409,1.2382,1.2507,1.2513,1.2625,1.247,1.2473,1.2475,0,1.1364,1.1451,1.161,1.171,1.1749,1.1825,1.1927,1.2006,1.2095,1.2126,1.2196,1.2223,1.2328,1.2291,1.2436,1.238,1.2433,1.247,1.2476,1.249,1.2448,1.2527,1.2662,1.2679,1.2501,1.2499,1.2497,0,1.1422,1.1579,1.1695,1.174,1.1859,1.1913,1.1965,1.2051,1.2112,1.22,1.224,1.234,1.2395,1.2472,1.2525,1.2493,1.2666,1.2634,1.2696,1.2695,1.2733,1.2731,1.288,1.2764,1.2764,1.2763,1.2763,0,1.1544,1.1641,1.1723,1.1794,1.1903,1.1954,1.2061,1.2114,1.2191,1.2273,1.2301,1.2378,1.2443,1.2529,1.2571,1.2686,1.271,1.2739,1.2749,1.2738,1.2734,1.2774,1.2769,1.2768,1.2767,1.2766,1.2765,0,1.1629,1.1687,1.1815,1.1916,1.1944,1.202,1.2108,1.2178,1.2227,1.2332,1.2359,1.2437,1.254,1.2599,1.2729,1.2757,1.2885,1.2891,1.2855,1.286,1.292,1.2914,1.3102,1.313,1.2993,1.2995,1.2996,0,1.1703,1.1778,1.1887,1.1944,1.1997,1.2088,1.215,1.2204,1.2267,1.2374,1.2432,1.2536,1.2623,1.2786,1.2854,1.2954,1.2963,1.3022,1.2979,1.2965,1.2966,1.2962,1.297,1.3031,1.3032,1.3033,1.3034,0,1.183,1.1855,1.1943,1.2042,1.2115,1.2195,1.2275,1.232,1.2387,1.2457,1.2562,1.2629,1.2761,1.2864,1.2969,1.3024,1.3041,1.3046,1.3066,1.3056,1.3033,1.3048,1.2877,1.3042,1.3041,1.3041,1.304,1.304,1.1914,1.1981,1.2069,1.2166,1.2231,1.2305,1.2376,1.2434,1.2522,1.2634,1.266,1.277,1.2858,1.3,1.3057,1.3145,1.3135,1.3164,1.3172,1.3178,1.3181,1.3017,1.3164,1.3164,1.3164,1.3164,1.3164,0,1.2043,1.2101,1.2189,1.23,1.2376,1.2383,1.2472,1.2536,1.2633,1.2712,1.2796,1.2917,1.3017,1.3093,1.3196,1.3252,1.3262,1.3277,1.3275,1.3288,1.3183,1.3156,1.3267,1.3267,1.3267,1.3267,1.3267,1.3267,1.212,1.2236,1.2271,1.2419,1.2476,1.2584,1.2634,1.2703,1.2767,1.29,1.2983,1.3031,1.311,1.3219,1.3312,1.3331,1.3369,1.3383,1.3404,1.3306,1.3295,1.3284,1.3259,1.339,1.339,1.3501,1.3502,1.3503]}]]